Voltar ao catálogo

FENGYUN 1C DEB

AtivoSSO
NORAD 31944·DEBRIS·🇨🇳 China

Lançado May 10, 1999 de Taiyuan Satellite Launch Center

Loading…

Próximas Passagens (próximas 24 horas)

TLE

AtualizadoSource: Space-Track

Época: Sep 14, 2026, 06:41 UTC

1 31944U 99025CMV 26257.27881082  .00000521  00000-0  27754-3 0  9990
2 31944  99.2357  57.6444 0149880 312.3513 169.0872 14.12440761667996

Acompanhe FENGYUN 1C DEB em tempo real com AllMySat

Download on the App Store